TimeEDT,TemperatureF,Dew PointF,Humidity,Sea Level PressureIn,VisibilityMPH,Wind Direction,Wind SpeedMPH,Gust SpeedMPH,PrecipitationIn,Events,Conditions,WindDirDegrees,DateUTC
12:15 AM,57.2,51.8,82,30.20,10.0,South,6.9,-,N/A,,Clear,190,2013-04-17 04:15:00
12:35 AM,57.2,51.8,82,30.20,10.0,South,6.9,-,N/A,,Clear,180,2013-04-17 04:35:00
12:55 AM,57.2,51.8,82,30.19,10.0,South,6.9,-,N/A,,Clear,190,2013-04-17 04:55:00
1:15 AM,57.2,51.8,82,30.19,10.0,South,8.1,-,N/A,,Clear,180,2013-04-17 05:15:00
1:35 AM,57.2,51.8,82,30.19,10.0,South,8.1,-,N/A,,Clear,190,2013-04-17 05:35:00
1:55 AM,57.2,53.6,88,30.18,10.0,South,10.4,-,N/A,,Clear,190,2013-04-17 05:55:00
2:15 AM,57.2,53.6,88,30.18,10.0,South,9.2,-,N/A,,Clear,190,2013-04-17 06:15:00
2:35 AM,57.2,51.8,82,30.19,10.0,SSW,8.1,-,N/A,,Clear,200,2013-04-17 06:35:00
2:55 AM,57.2,53.6,88,30.19,10.0,SSW,10.4,-,N/A,,Mostly Cloudy,200,2013-04-17 06:55:00
3:15 AM,57.2,51.8,82,30.18,10.0,SSW,9.2,-,N/A,,Scattered Clouds,200,2013-04-17 07:15:00
3:35 AM,57.2,51.8,82,30.17,10.0,SSW,10.4,-,N/A,,Mostly Cloudy,200,2013-04-17 07:35:00
3:55 AM,59.0,53.6,82,30.16,10.0,South,9.2,-,N/A,,Mostly Cloudy,190,2013-04-17 07:55:00
4:15 AM,59.0,53.6,82,30.15,10.0,South,10.4,-,N/A,,Partly Cloudy,190,2013-04-17 08:15:00
4:35 AM,57.2,53.6,88,30.14,10.0,South,9.2,-,N/A,,Clear,190,2013-04-17 08:35:00
4:55 AM,57.2,53.6,88,30.14,10.0,SSW,8.1,-,N/A,,Clear,200,2013-04-17 08:55:00
5:15 AM,57.2,51.8,82,30.13,10.0,South,9.2,-,N/A,,Clear,190,2013-04-17 09:15:00
5:35 AM,57.2,51.8,82,30.13,10.0,South,8.1,-,N/A,,Clear,190,2013-04-17 09:35:00
5:55 AM,55.4,51.8,88,30.13,10.0,South,5.8,-,N/A,,Clear,180,2013-04-17 09:55:00
6:15 AM,55.4,51.8,88,30.14,10.0,SSW,4.6,-,N/A,,Partly Cloudy,200,2013-04-17 10:15:00
6:35 AM,55.4,51.8,88,30.16,10.0,SW,3.5,-,N/A,,Mostly Cloudy,230,2013-04-17 10:35:00
6:55 AM,57.2,53.6,88,30.16,10.0,WSW,5.8,-,N/A,,Partly Cloudy,240,2013-04-17 10:55:00
7:15 AM,59.0,55.4,88,30.17,10.0,WSW,8.1,-,N/A,,Clear,250,2013-04-17 11:15:00
7:35 AM,60.8,55.4,82,30.18,-9999.0,WSW,8.1,-,N/A,,Partly Cloudy,250,2013-04-17 11:35:00
7:55 AM,60.8,55.4,82,30.18,-9999.0,West,8.1,-,N/A,,Partly Cloudy,260,2013-04-17 11:55:00
8:15 AM,60.8,55.4,82,30.18,-9999.0,West,8.1,-,N/A,,Scattered Clouds,260,2013-04-17 12:15:00
8:35 AM,60.8,55.4,82,30.19,-9999.0,West,9.2,-,N/A,,Clear,260,2013-04-17 12:35:00
8:55 AM,62.6,57.2,82,30.19,-9999.0,West,5.8,-,N/A,,Clear,280,2013-04-17 12:55:00
9:15 AM,62.6,57.2,82,30.19,-9999.0,WNW,5.8,-,N/A,,Clear,290,2013-04-17 13:15:00
9:35 AM,64.4,57.2,77,30.19,-9999.0,WNW,6.9,-,N/A,,Clear,290,2013-04-17 13:35:00
10:15 AM,64.4,57.2,77,30.19,-9999.0,NW,10.4,-,N/A,,Clear,310,2013-04-17 14:15:00
10:35 AM,64.4,57.2,77,30.19,-9999.0,NW,6.9,-,N/A,,Clear,310,2013-04-17 14:35:00
10:55 AM,66.2,57.2,73,30.19,-9999.0,NNW,6.9,-,N/A,,Clear,340,2013-04-17 14:55:00
11:15 AM,69.8,59.0,68,30.20,-9999.0,North,8.1,-,N/A,,Clear,350,2013-04-17 15:15:00
11:35 AM,69.8,59.0,68,30.20,-9999.0,North,5.8,-,N/A,,Clear,10,2013-04-17 15:35:00
11:55 AM,71.6,59.0,64,30.20,-9999.0,NNE,5.8,-,N/A,,Clear,20,2013-04-17 15:55:00
12:15 PM,71.6,59.0,64,30.21,-9999.0,East,13.8,18.4,N/A,,Scattered Clouds,90,2013-04-17 16:15:00
12:35 PM,62.6,51.8,68,30.22,-9999.0,East,15.0,24.2,N/A,,Scattered Clouds,80,2013-04-17 16:35:00
12:55 PM,60.8,51.8,72,30.22,-9999.0,East,10.4,19.6,N/A,,Mostly Cloudy,80,2013-04-17 16:55:00
1:15 PM,60.8,50.0,68,30.22,-9999.0,East,11.5,17.3,N/A,,Overcast,80,2013-04-17 17:15:00
1:35 PM,59.0,48.2,67,30.23,-9999.0,East,13.8,17.3,N/A,,Overcast,100,2013-04-17 17:35:00
1:55 PM,60.8,50.0,68,30.22,-9999.0,East,13.8,19.6,N/A,,Overcast,90,2013-04-17 17:55:00
2:15 PM,57.2,48.2,72,30.23,-9999.0,East,12.7,18.4,N/A,,Overcast,80,2013-04-17 18:15:00
2:35 PM,57.2,46.4,67,30.23,10.0,ENE,11.5,-,N/A,,Overcast,70,2013-04-17 18:35:00
2:55 PM,55.4,46.4,72,30.23,10.0,East,10.4,16.1,N/A,,Overcast,90,2013-04-17 18:55:00
3:15 PM,57.2,46.4,67,30.22,10.0,East,12.7,17.3,N/A,,Mostly Cloudy,80,2013-04-17 19:15:00
3:35 PM,57.2,44.6,63,30.22,10.0,East,10.4,-,N/A,,Partly Cloudy,80,2013-04-17 19:35:00
3:55 PM,57.2,46.4,67,30.22,-9999.0,East,9.2,-,N/A,,Scattered Clouds,80,2013-04-17 19:55:00
4:35 PM,59.0,46.4,63,30.23,-9999.0,East,10.4,-,N/A,,Clear,90,2013-04-17 20:35:00
4:55 PM,60.8,46.4,59,30.22,-9999.0,East,10.4,-,N/A,,Mostly Cloudy,90,2013-04-17 20:55:00
5:15 PM,60.8,46.4,59,30.22,-9999.0,ESE,11.5,-,N/A,,Mostly Cloudy,110,2013-04-17 21:15:00
5:35 PM,57.2,44.6,63,30.22,-9999.0,ESE,9.2,-,N/A,,Partly Cloudy,110,2013-04-17 21:35:00
5:55 PM,57.2,42.8,59,30.23,-9999.0,ESE,8.1,-,N/A,,Partly Cloudy,120,2013-04-17 21:55:00
6:15 PM,57.2,42.8,59,30.23,10.0,ESE,11.5,-,N/A,,Scattered Clouds,110,2013-04-17 22:15:00
6:35 PM,55.4,41.0,58,30.23,10.0,ESE,9.2,-,N/A,,Clear,110,2013-04-17 22:35:00
6:55 PM,55.4,42.8,63,30.23,10.0,ESE,6.9,-,N/A,,Clear,120,2013-04-17 22:55:00
7:15 PM,53.6,42.8,67,30.24,10.0,East,8.1,-,N/A,,Clear,90,2013-04-17 23:15:00
7:35 PM,53.6,41.0,62,30.24,10.0,ESE,6.9,-,N/A,,Clear,110,2013-04-17 23:35:00
7:55 PM,53.6,41.0,62,30.24,10.0,East,5.8,-,N/A,,Clear,100,2013-04-17 23:55:00
8:15 PM,53.6,39.2,58,30.25,10.0,East,6.9,-,N/A,,Clear,100,2013-04-18 00:15:00
8:35 PM,51.8,39.2,62,30.26,10.0,East,6.9,-,N/A,,Clear,100,2013-04-18 00:35:00
8:55 PM,51.8,39.2,62,30.26,10.0,East,6.9,-,N/A,,Clear,100,2013-04-18 00:55:00
9:15 PM,51.8,39.2,62,30.27,10.0,ESE,6.9,-,N/A,,Clear,120,2013-04-18 01:15:00
9:35 PM,51.8,39.2,62,30.27,10.0,East,5.8,-,N/A,,Scattered Clouds,100,2013-04-18 01:35:00
9:55 PM,53.6,39.2,58,30.28,10.0,ESE,4.6,-,N/A,,Overcast,110,2013-04-18 01:55:00
10:15 PM,53.6,39.2,58,30.28,10.0,ESE,6.9,-,N/A,,Overcast,120,2013-04-18 02:15:00
10:35 PM,53.6,39.2,58,30.28,10.0,ESE,6.9,-,N/A,,Overcast,120,2013-04-18 02:35:00
10:55 PM,53.6,39.2,58,30.27,10.0,East,6.9,-,N/A,,Overcast,90,2013-04-18 02:55:00
11:15 PM,53.6,39.2,58,30.28,10.0,East,4.6,-,N/A,,Overcast,90,2013-04-18 03:15:00
11:35 PM,53.6,41.0,62,30.28,10.0,East,4.6,-,N/A,,Overcast,90,2013-04-18 03:35:00
11:55 PM,53.6,41.0,62,30.28,10.0,ESE,6.9,-,N/A,,Overcast,120,2013-04-18 03:55:00